Location: Lixville
(37.5770°N, 89.9118°W)
Time: 14:09:32
(UTC+00:00)

Courier 1B Rocket - Pass Details

Date: 13 November 2024
Orbit: 920 x 1201 km, 28.2° (Epoch: 02 December)

Event Time Altitude Azimuth Distance (km) Brightness Sun altitude
Rises 00:48:48 0° 259° (W) 3,619 9.4 -23.5°
Reaches altitude 10° 00:51:43 10° 250° (WSW) 2,644 8.3 -24.1°
Maximum altitude 00:57:14 32° 189° (S) 1,522 6.1 -25.2°
Enters shadow 00:59:11 27° 157° (SSE) 1,698 6.1 -25.6°
